sat.trackr.live / text

‹ back to catalog

STARLINK-4580

NORAD 53579 · 2022-101BE

PAYLOAD ACTIVE UNKNOWN

§ Identity

Operator
Country
US
Launch date
2022-08-19
Launch site
AFETR
Launch vehicle
Mass (kg)
RCS (m²)

Purposes: comms

External: N2YO · Heavens-Above · Gunter

§ Orbital elements

Epoch: 2026-09-19T16:12:31.165344Z

Period
93.85 min
Inclination
53.1587°
Eccentricity
0.0001286
Mean motion
15.34390778 rev/d
Perigee alt
461.9 km
Apogee alt
463.6 km
Semi-major
6,840.9 km
B*
3.0849e-5
RAAN
247.6707°
Arg perigee
94.0076°
Mean anomaly
266.1074°
Rev number
22,594

§ Raw data

STARLINK-45801 53579U 22101BE  26262.67536071  .00000666  00000+0  30849-4 0  99932 53579  53.1587 247.6707 0001286  94.0076 266.1074 15.34390778225941

JSON: /api/v1/satellites/53579 · /tle

For live sub-satellite position, see the globe view (requires WebGL).

§ Visibility from observer

Set your observer location to see the next 7 days of passes ≥ 10°. The values pass through the URL so the page stays shareable.

No JS? Fill the form by hand. The geolocation button needs JavaScript.